Imperial, NE

9:21 PM MST on January 19, 2018 (GMT -0700)
Imperial Municipal

Weather History for KIML - August, 2013

Change the Weather History Date:

Thursday, August 15, 2013

  Actual Average Record
Temperature  
Mean Temperature 73 °F 74 °F  
Max Temperature 87 °F 88 °F 106 °F (1937)
Min Temperature 58 °F 61 °F 49 °F (1920)
Degree Days  
Heating Degree Days 0 0  
Month to date heating degree days 0 0  
Since 1 June heating degree days 32 36  
Cooling Degree Days 8 9  
Month to date cooling degree days 120 158  
Year to date cooling degree days 741 742  
Since 1 June cooling degree days 673 698  
Growing Degree Days 22 (Base 50)    
Moisture  
Dew Point 56 °F    
Average Humidity 66    
Maximum Humidity 100    
Minimum Humidity 32    
Precipitation  
Precipitation 0.01 in 0.08 in 2.04 in (1981)
Sea Level Pressure  
Sea Level Pressure 30.01 in    
Wind  
Wind Speed 7 mph (SW)    
Max Wind Speed 26 mph    
Max Gust Speed 32 mph    
Visibility 10 miles    
Events Rain , Thunderstorm    
T = Trace of Precipitation, MM = Missing Value Source: NWS Daily Summary

Daily Weather History Graph

Daily Weather History Graph

Search for Another Location

Airport or City:

Trip Planner

Search our weather history database for the weather conditions in past years. The results will help you decide how hot, cold, wet, or windy it might be!

Date:

Astronomy

Aug. 15, 2013 Rise Set
Actual Time 5:57 AM MDT 7:43 PM MDT
Civil Twilight 5:28 AM MDT 8:12 PM MDT
Nautical Twilight 4:52 AM MDT 8:48 PM MDT
Astronomical Twilight 4:14 AM MDT 9:26 PM MDT
Moon 3:03 PM MDT (8/15) 12:08 AM MDT (8/15)
Length of Visible Light 14h 44m
Length of Day
13h 46m
Waxing Gibbous, 65% of the Moon is Illuminated
Aug 15
Waxing Gibbous
Aug 20
Full
Aug 28
Last Quarter
Sep 5
New
Sep 12
First Quarter

Hourly Weather History & Observations

Time (MDT) Temp. Heat Index Dew Point Humidity Pressure Visibility Wind Dir Wind Speed Gust Speed Precip Events Conditions
12:53 AM 64.9 °F - 62.1 °F 90% 29.96 in 10.0 mi South 3.5 mph - N/A   Clear
1:53 AM 62.1 °F - 57.9 °F 86% 29.97 in 10.0 mi Calm Calm - N/A   Clear
2:53 AM 57.9 °F - 55.9 °F 93% 30.00 in 10.0 mi WSW 3.5 mph - N/A   Clear
3:53 AM 60.1 °F - 55.0 °F 83% 30.03 in 10.0 mi North 6.9 mph - N/A   Clear
4:53 AM 63.0 °F - 53.1 °F 70% 30.06 in 10.0 mi NE 13.8 mph 25.3 mph N/A   Mostly Cloudy
5:53 AM 59.0 °F - 53.1 °F 81% 30.03 in 10.0 mi Calm Calm - 0.00 in   Mostly Cloudy
6:53 AM 61.0 °F - 53.1 °F 75% 30.02 in 10.0 mi Calm Calm - N/A   Mostly Cloudy
7:17 AM 60.8 °F - 53.6 °F 77% 30.10 in 10.0 mi West 8.1 mph - 0.00 in Rain , Thunderstorm Light Rain
7:53 AM 62.1 °F - 54.0 °F 75% 30.03 in 10.0 mi West 10.4 mph - 0.00 in Rain , Thunderstorm Light Thunderstorms and Rain
8:11 AM 62.6 °F - 53.6 °F 72% 30.09 in 10.0 mi Calm Calm - N/A   Scattered Clouds
8:53 AM 62.1 °F - 55.9 °F 80% 30.04 in 10.0 mi SW 6.9 mph - N/A   Mostly Cloudy
9:53 AM 73.9 °F - 55.9 °F 53% 29.99 in 10.0 mi West 11.5 mph - N/A   Clear
10:53 AM 79.0 °F - 53.1 °F 40% 29.97 in 10.0 mi Variable 3.5 mph - N/A   Clear
11:53 AM 82.0 °F 82.0 °F 57.9 °F 44% 29.98 in 10.0 mi WSW 9.2 mph 16.1 mph N/A   Clear
12:53 PM 82.9 °F 82.0 °F 55.0 °F 38% 29.99 in 10.0 mi WSW 8.1 mph - N/A   Clear
1:53 PM 84.0 °F 82.9 °F 55.0 °F 37% 29.98 in 10.0 mi West 8.1 mph - N/A   Clear
2:53 PM 86.0 °F 84.2 °F 54.0 °F 33% 29.97 in 10.0 mi WNW 8.1 mph - N/A   Clear
3:30 PM 87.8 °F 85.7 °F 53.6 °F 31% 30.04 in 10.0 mi WSW 8.1 mph - N/A Thunderstorm Thunderstorm
3:53 PM 79.0 °F - 55.0 °F 44% 29.96 in 10.0 mi ENE 19.6 mph 31.1 mph N/A Thunderstorm Thunderstorm
4:08 PM 73.4 °F - 57.2 °F 57% 30.06 in 10.0 mi ENE 10.4 mph 24.2 mph 0.01 in Rain , Thunderstorm Light Thunderstorms and Rain
4:53 PM 81.0 °F 80.7 °F 55.0 °F 41% 29.97 in 10.0 mi East 3.5 mph - 0.01 in   Scattered Clouds
5:53 PM 80.1 °F 80.4 °F 57.0 °F 45% 29.98 in 10.0 mi ESE 3.5 mph - N/A   Clear
6:53 PM 79.0 °F - 59.0 °F 50% 29.98 in 10.0 mi ENE 3.5 mph - N/A   Clear
7:53 PM 71.1 °F - 61.0 °F 70% 30.02 in 10.0 mi ENE 6.9 mph - N/A   Clear
8:53 PM 66.9 °F - 60.1 °F 79% 30.06 in 10.0 mi East 6.9 mph - N/A   Clear
9:53 PM 66.0 °F - 60.1 °F 81% 30.07 in 10.0 mi ESE 4.6 mph - N/A   Mostly Cloudy
11:53 PM 64.9 °F - 64.0 °F 97% 30.05 in 5.0 mi East 5.8 mph - N/A   Overcast